Tracking 19242 objects as of 15-Aug-2018
HD Live streaming from Space Station
objects crossing your sky now

OPS 8068

Track OPS 8068 now!
10-day predictions
OPS 8068 is classified as:


NORAD ID: 1580
Int'l Code: 1965-072A
Perigee: 639.2 km
Apogee: 975.2 km
Inclination: 98.5 °
Period: 100.9 minutes
Semi major axis: 7178 km
RCS: 0.631 m2 (medium)
Launch date: September 10, 1965
Source: United States (US)
Launch site: AIR FORCE WESTERN TEST RANGE (AFWTR)
aabbcc
Your satellite tracking list
Your tracking list is empty




NASA's NSSDC Master Catalog

Two Line Element Set (TLE):
1 01580U 65072A   18226.73265978 -.00000003  00000-0  14443-4 0  9994
2 01580  98.4890  94.1905 0234046 214.6664 143.9073 14.27506154744850
Source of the keplerian elements: AFSPC